User: anonymous
Location: Hamburg
(53.5500°N, 10.0000°E)
Time: 22:08:08
(UTC+02:00)
Language:

Iridium 10 - Orbit

View from above orbital plane
View from above orbital plane
View from above satellite
View from above satellite

Ground track
Ground track

The orbit data is extracted from the following two-line orbital elements,

1 24839U 97030D   14204.25507823  .00000137  00000-0  41838-4 0  9302
2 24839 086.3935 073.1687 0002145 099.0166 041.0326 14.34216053895037
Epoch (UTC): 23 July 2014 06:07:18
Eccentricity: 0.0002145
inclination: 86.3935°
perigee height: 776 km
apogee height: 779 km
right ascension of ascending node: 73.1687°
argument of perigee: 99.0166°
revolutions per day: 14.34216053
mean anomaly at epoch: 41.0326°
orbit number at epoch: 89503

The dashed part of the orbit path shows where the satellite is in the earth's shadow,  

DLR